Time,TemperatureF,DewpointF,PressureIn,WindDirection,WindDirectionDegrees,WindSpeedMPH,WindSpeedGustMPH,Humidity,HourlyPrecipIn,Conditions,Clouds,dailyrainin,SolarRadiationWatts/m^2,SoftwareType,DateUTC
2013-01-09 00:11:00,61.0,53.0,-100.00,NW,310,2.0,10.0,74,0.00,,,0.00,0.000000,,2013-01-09 10:11:00,
2013-01-09 00:22:00,61.0,53.0,-100.00,NW,310,2.0,10.0,74,0.00,,,0.00,0.000000,,2013-01-09 10:22:00,
2013-01-09 00:32:00,61.0,53.0,-100.00,NW,310,2.0,10.0,74,0.00,,,0.00,0.000000,,2013-01-09 10:32:00,
2013-01-09 00:42:00,61.0,53.0,-100.00,NW,310,2.0,10.0,74,0.00,,,0.00,0.000000,,2013-01-09 10:42:00,
2013-01-09 01:12:00,60.0,52.0,-100.00,NNW,348,4.0,9.0,75,0.00,,,0.00,0.000000,,2013-01-09 11:12:00,
2013-01-09 01:22:00,60.0,52.0,-100.00,NNW,348,4.0,9.0,75,0.00,,,0.00,0.000000,,2013-01-09 11:22:00,
2013-01-09 01:32:00,60.0,52.0,-100.00,NNW,348,4.0,9.0,75,0.00,,,0.00,0.000000,,2013-01-09 11:32:00,
2013-01-09 01:42:00,60.0,52.0,-100.00,NNW,348,4.0,9.0,75,0.00,,,0.00,0.000000,,2013-01-09 11:42:00,
2013-01-09 03:12:00,61.0,54.0,-100.00,NNE,22,4.0,10.0,79,-99.99,,,0.00,0.000000,,2013-01-09 13:12:00,
2013-01-09 03:22:00,61.0,54.0,-100.00,NNE,22,4.0,10.0,79,-99.99,,,0.00,0.000000,,2013-01-09 13:22:00,
2013-01-09 03:32:00,61.0,54.0,-100.00,NNE,22,4.0,10.0,79,-99.99,,,0.00,0.000000,,2013-01-09 13:32:00,
2013-01-09 03:42:00,61.0,54.0,-100.00,NNE,22,4.0,10.0,79,-99.99,,,0.00,0.000000,,2013-01-09 13:42:00,
2013-01-09 04:12:00,62.0,54.0,-100.00,North,351,5.0,9.0,75,0.00,,,0.00,0.000000,,2013-01-09 14:12:00,
2013-01-09 04:22:00,62.0,54.0,-100.00,North,351,5.0,9.0,75,0.00,,,0.00,0.000000,,2013-01-09 14:22:00,
2013-01-09 04:33:00,62.0,54.0,-100.00,North,351,5.0,9.0,75,0.00,,,0.00,0.000000,,2013-01-09 14:33:00,
2013-01-09 04:43:00,62.0,54.0,-100.00,North,351,5.0,9.0,75,0.00,,,0.00,0.000000,,2013-01-09 14:43:00,
2013-01-09 05:12:00,61.0,53.0,-100.00,NNE,26,4.0,9.0,76,0.00,,,0.00,0.000000,,2013-01-09 15:12:00,
2013-01-09 05:22:00,61.0,53.0,-100.00,NNE,26,4.0,9.0,76,0.00,,,0.00,0.000000,,2013-01-09 15:22:00,
2013-01-09 05:33:00,61.0,53.0,-100.00,NNE,26,4.0,9.0,76,0.00,,,0.00,0.000000,,2013-01-09 15:33:00,
2013-01-09 05:42:00,61.0,53.0,-100.00,NNE,26,4.0,9.0,76,0.00,,,0.00,0.000000,,2013-01-09 15:42:00,
2013-01-09 06:12:00,60.0,52.0,-100.00,North,10,5.0,9.0,76,0.00,,,0.00,0.000000,,2013-01-09 16:12:00,
2013-01-09 06:22:00,60.0,52.0,-100.00,North,10,5.0,9.0,76,0.00,,,0.00,0.000000,,2013-01-09 16:22:00,
2013-01-09 06:33:00,60.0,52.0,-100.00,North,10,5.0,9.0,76,0.00,,,0.00,0.000000,,2013-01-09 16:33:00,
2013-01-09 06:42:00,60.0,52.0,-100.00,North,10,5.0,9.0,76,0.00,,,0.00,0.000000,,2013-01-09 16:42:00,
2013-01-09 07:12:00,58.0,50.0,-100.00,North,6,4.0,8.0,74,0.00,,,0.00,0.000000,,2013-01-09 17:12:00,
2013-01-09 07:22:00,58.0,50.0,-100.00,North,6,4.0,8.0,74,0.00,,,0.00,0.000000,,2013-01-09 17:22:00,
2013-01-09 07:32:00,58.0,50.0,-100.00,North,6,4.0,8.0,74,0.00,,,0.00,0.000000,,2013-01-09 17:32:00,
2013-01-09 07:43:00,58.0,50.0,-100.00,North,6,4.0,8.0,74,0.00,,,0.00,0.000000,,2013-01-09 17:43:00,
2013-01-09 08:12:00,63.0,55.0,-100.00,NNW,331,3.0,8.0,75,0.00,,,-99.99,55.000000,,2013-01-09 18:12:00,
2013-01-09 08:23:00,63.0,55.0,-100.00,NNW,331,3.0,8.0,75,0.00,,,-99.99,55.000000,,2013-01-09 18:23:00,
2013-01-09 08:33:00,63.0,55.0,-100.00,NNW,331,3.0,8.0,75,0.00,,,-99.99,55.000000,,2013-01-09 18:33:00,
2013-01-09 08:43:00,63.0,55.0,-100.00,NNW,331,3.0,8.0,75,0.00,,,-99.99,55.000000,,2013-01-09 18:43:00,
2013-01-09 09:12:00,72.0,57.0,-100.00,West,272,4.0,7.0,59,0.00,,,0.00,236.000000,,2013-01-09 19:12:00,
2013-01-09 09:22:00,72.0,57.0,-100.00,West,272,4.0,7.0,59,0.00,,,0.00,236.000000,,2013-01-09 19:22:00,
2013-01-09 09:33:00,72.0,57.0,-100.00,West,272,4.0,7.0,59,0.00,,,0.00,236.000000,,2013-01-09 19:33:00,
2013-01-09 09:42:00,72.0,57.0,-100.00,West,272,4.0,7.0,59,0.00,,,0.00,236.000000,,2013-01-09 19:42:00,
2013-01-09 10:12:00,76.0,58.0,-100.00,East,94,10.0,18.0,53,0.00,,,0.00,437.000000,,2013-01-09 20:12:00,
2013-01-09 10:22:00,76.0,58.0,-100.00,East,94,10.0,18.0,53,0.00,,,0.00,437.000000,,2013-01-09 20:22:00,
2013-01-09 10:33:00,76.0,58.0,-100.00,East,94,10.0,18.0,53,0.00,,,0.00,437.000000,,2013-01-09 20:33:00,
2013-01-09 10:42:00,76.0,58.0,-100.00,East,94,10.0,18.0,53,0.00,,,0.00,437.000000,,2013-01-09 20:42:00,
2013-01-09 11:12:00,76.0,59.0,-100.00,East,100,10.0,20.0,56,0.00,,,0.00,617.000000,,2013-01-09 21:12:00,
2013-01-09 11:22:00,76.0,59.0,-100.00,East,100,10.0,20.0,56,0.00,,,0.00,617.000000,,2013-01-09 21:22:00,
2013-01-09 11:33:00,76.0,59.0,-100.00,East,100,10.0,20.0,56,0.00,,,0.00,617.000000,,2013-01-09 21:33:00,
2013-01-09 11:42:00,76.0,59.0,-100.00,East,100,10.0,20.0,56,0.00,,,0.00,617.000000,,2013-01-09 21:42:00,
2013-01-09 12:12:00,76.0,62.0,-100.00,ESE,114,11.0,22.0,62,0.00,,,0.00,739.000000,,2013-01-09 22:12:00,
2013-01-09 12:22:00,76.0,62.0,-100.00,ESE,114,11.0,22.0,62,0.00,,,0.00,739.000000,,2013-01-09 22:22:00,
2013-01-09 12:33:00,76.0,62.0,-100.00,ESE,114,11.0,22.0,62,0.00,,,0.00,739.000000,,2013-01-09 22:33:00,
2013-01-09 12:42:00,76.0,62.0,-100.00,ESE,114,11.0,22.0,62,0.00,,,0.00,739.000000,,2013-01-09 22:42:00,
2013-01-09 13:12:00,76.0,62.0,-100.00,ESE,112,12.0,22.0,63,0.00,,,0.00,774.000000,,2013-01-09 23:12:00,
2013-01-09 13:22:00,76.0,62.0,-100.00,ESE,112,12.0,22.0,63,0.00,,,0.00,774.000000,,2013-01-09 23:22:00,
2013-01-09 13:32:00,76.0,62.0,-100.00,ESE,112,12.0,22.0,63,0.00,,,0.00,774.000000,,2013-01-09 23:32:00,
2013-01-09 13:42:00,76.0,62.0,-100.00,ESE,112,12.0,22.0,63,0.00,,,0.00,774.000000,,2013-01-09 23:42:00,
2013-01-09 14:12:00,74.0,62.0,-100.00,ESE,115,14.0,24.0,66,0.00,,,0.00,725.000000,,2013-01-10 00:12:00,
2013-01-09 14:22:00,74.0,62.0,-100.00,ESE,115,14.0,24.0,66,0.00,,,0.00,725.000000,,2013-01-10 00:22:00,
2013-01-09 14:32:00,74.0,62.0,-100.00,ESE,115,14.0,24.0,66,0.00,,,0.00,725.000000,,2013-01-10 00:32:00,
2013-01-09 14:42:00,74.0,62.0,-100.00,ESE,115,14.0,24.0,66,0.00,,,0.00,725.000000,,2013-01-10 00:42:00,
2013-01-09 15:12:00,72.0,64.0,-100.00,ESE,105,12.0,25.0,75,0.00,,,0.00,571.000000,,2013-01-10 01:12:00,
2013-01-09 15:22:00,72.0,64.0,-100.00,ESE,105,12.0,25.0,75,0.00,,,0.00,571.000000,,2013-01-10 01:22:00,
2013-01-09 15:32:00,72.0,64.0,-100.00,ESE,105,12.0,25.0,75,0.00,,,0.00,571.000000,,2013-01-10 01:32:00,
2013-01-09 15:42:00,72.0,64.0,-100.00,ESE,105,12.0,25.0,75,0.00,,,0.00,571.000000,,2013-01-10 01:42:00,
2013-01-09 16:12:00,72.0,62.0,-100.00,East,94,11.0,23.0,71,0.00,,,0.00,434.000000,,2013-01-10 02:12:00,
2013-01-09 16:22:00,72.0,62.0,-100.00,East,94,11.0,23.0,71,0.00,,,0.00,434.000000,,2013-01-10 02:22:00,
2013-01-09 16:32:00,72.0,62.0,-100.00,East,94,11.0,23.0,71,0.00,,,0.00,434.000000,,2013-01-10 02:32:00,
2013-01-09 16:42:00,72.0,62.0,-100.00,East,94,11.0,23.0,71,0.00,,,0.00,434.000000,,2013-01-10 02:42:00,
2013-01-09 18:12:00,68.0,61.0,-100.00,East,97,7.0,16.0,78,-99.99,,,0.00,21.000000,,2013-01-10 04:12:00,
2013-01-09 18:22:00,68.0,61.0,-100.00,East,97,7.0,16.0,78,-99.99,,,0.00,21.000000,,2013-01-10 04:22:00,
2013-01-09 18:32:00,68.0,61.0,-100.00,East,97,7.0,16.0,78,-99.99,,,0.00,21.000000,,2013-01-10 04:32:00,
2013-01-09 18:42:00,68.0,61.0,-100.00,East,97,7.0,16.0,78,-99.99,,,0.00,21.000000,,2013-01-10 04:42:00,
2013-01-09 19:12:00,67.0,60.0,-100.00,East,84,5.0,12.0,77,0.00,,,0.00,1.000000,,2013-01-10 05:12:00,
2013-01-09 19:22:00,67.0,60.0,-100.00,East,84,5.0,12.0,77,0.00,,,0.00,1.000000,,2013-01-10 05:22:00,
2013-01-09 19:32:00,67.0,60.0,-100.00,East,84,5.0,12.0,77,0.00,,,0.00,1.000000,,2013-01-10 05:32:00,
2013-01-09 19:42:00,67.0,60.0,-100.00,East,84,5.0,12.0,77,0.00,,,0.00,1.000000,,2013-01-10 05:42:00,
2013-01-09 20:11:00,66.0,60.0,-100.00,East,92,5.0,11.0,81,0.00,,,0.00,0.000000,,2013-01-10 06:11:00,
2013-01-09 20:22:00,66.0,60.0,-100.00,East,92,5.0,11.0,81,0.00,,,0.00,0.000000,,2013-01-10 06:22:00,
2013-01-09 20:32:00,66.0,60.0,-100.00,East,92,5.0,11.0,81,0.00,,,0.00,0.000000,,2013-01-10 06:32:00,
2013-01-09 20:42:00,66.0,60.0,-100.00,East,92,5.0,11.0,81,0.00,,,0.00,0.000000,,2013-01-10 06:42:00,
2013-01-09 21:12:00,63.0,58.0,-100.00,NNW,334,2.0,9.0,83,0.00,,,0.00,0.000000,,2013-01-10 07:12:00,
2013-01-09 21:22:00,63.0,58.0,-100.00,NNW,334,2.0,9.0,83,0.00,,,0.00,0.000000,,2013-01-10 07:22:00,
2013-01-09 21:32:00,63.0,58.0,-100.00,NNW,334,2.0,9.0,83,0.00,,,0.00,0.000000,,2013-01-10 07:32:00,
2013-01-09 21:42:00,63.0,58.0,-100.00,NNW,334,2.0,9.0,83,0.00,,,0.00,0.000000,,2013-01-10 07:42:00,
2013-01-09 22:11:00,61.0,58.0,-100.00,NNW,335,4.0,6.0,89,0.00,,,0.00,0.000000,,2013-01-10 08:11:00,
2013-01-09 22:22:00,61.0,58.0,-100.00,NNW,335,4.0,6.0,89,0.00,,,0.00,0.000000,,2013-01-10 08:22:00,
2013-01-09 22:32:00,61.0,58.0,-100.00,NNW,335,4.0,6.0,89,0.00,,,0.00,0.000000,,2013-01-10 08:32:00,
2013-01-09 22:42:00,61.0,58.0,-100.00,NNW,335,4.0,6.0,89,0.00,,,0.00,0.000000,,2013-01-10 08:42:00,
2013-01-09 23:12:00,60.0,57.0,-100.00,North,2,4.0,7.0,90,0.00,,,0.00,0.000000,,2013-01-10 09:12:00,
2013-01-09 23:22:00,60.0,57.0,-100.00,North,2,4.0,7.0,90,0.00,,,0.00,0.000000,,2013-01-10 09:22:00,
2013-01-09 23:32:00,60.0,57.0,-100.00,North,2,4.0,7.0,90,0.00,,,0.00,0.000000,,2013-01-10 09:32:00,
2013-01-09 23:42:00,60.0,57.0,-100.00,North,2,4.0,7.0,90,0.00,,,0.00,0.000000,,2013-01-10 09:42:00,